Regional Weather Roundup
Issued by NWS Sioux Falls, SD

Home | Current Version | Previous Version | Graphics & Text | Print | Product List | Glossary On
Versions: 1 2 3 4 5 6 7 8 9 10 11 12 13 14 15 16 17 18 19 20 21 22 23 24 25 26 27 28 29 30 31 32 33 34 35 36 37 38 39 40 41 42 43 44 45 46 47 48 49 50
000
ASUS43 KFSD 240802
RWRFSD

WEATHER ROUNDUP FOR SE SOUTH DAKOTA/SW MINNESOTA/NW IOWA
NATIONAL WEATHER SERVICE SIOUX FALLS SD
200 AM CST FRI NOV 24 2017

NOTE: "FAIR" INDICATES FEW OR NO CLOUDS BELOW 12,000 FEET WITH NO
SIGNIFICANT WEATHER AND OR OBSTRUCTIONS TO VISIBILITY.


SDZ038>040-050-052>070-240900-
SOUTHEAST SOUTH DAKOTA

CITY           SKY/WX    TMP DP  RH WIND       PRES   REMARKS
BROOKINGS      CLEAR     45  38  76 S7        29.49F
CHAMBERLAIN    CLEAR     47  39  73 SW6       29.51F
HURON          CLEAR     38  35  89 S6        29.46F
MADISON        FAIR      52  41  66 SW15      29.50F
MITCHELL       CLEAR     49  39  68 CALM      29.50F
SIOUX FALLS    CLEAR     46  39  76 S3        29.51F
WINNER         FAIR      51  37  58 SW10      29.54F
YANKTON        CLEAR     54  41  61 S8        29.52F
$$

MNZ071-072-080-081-089-090-097-098-240900-
SOUTHWEST MINNESOTA

CITY           SKY/WX    TMP DP  RH WIND       PRES   REMARKS
FAIRMONT       CLEAR     45  37  73 S12       29.56F
JACKSON        CLEAR     50  37  62 SW14G22   29.56F
MARSHALL       CLEAR     55  40  56 SW20G26   29.46F
MONTEVIDEO     CLEAR     48  39  71 W8        29.44F
PIPESTONE      CLEAR     45  37  76 SW10      29.51F
REDWOOD FALLS  CLEAR     48  37  65 SW16      29.47F
WINDOM         CLEAR     46  30  53 S12       29.54F
WORTHINGTON    CLEAR     49  39  68 SW18      29.54F
$$

IAZ001>003-012>014-020>022-031-032-NEZ013-014-SDZ071-240900-
NORTHWEST IOWA

CITY           SKY/WX    TMP DP  RH WIND       PRES   REMARKS
CHEROKEE       CLEAR     47  39  73 S8        29.59F
DENISON        CLEAR     48  37  66 SW12      29.65F
ESTHERVILLE    CLEAR     49  40  71 S13       29.56F
LE MARS        CLEAR     46  39  76 S8        29.58F
ORANGE CITY    CLEAR     46  43  87 S9        29.57F
SHELDON        CLEAR     48  39  71 S12       29.55F
SIOUX CITY     CLEAR     43  38  82 E9        29.59F
SPENCER        CLEAR     51  39  63 SW12      29.58F
STORM LAKE     CLEAR     50  39  66 SW15      29.60F
$$

ABBREVIATIONS USED IN REMARKS
   TC - TEMPERATURE IN CELSIUS
  WCI - WIND CHILL INDEX
   HX - HEAT INDEX
  VSB - VISIBILITY





USA.gov is the U.S. government's official web portal to all federal, state and local government web resources and services.